Flag for Canada Weather past 2 weeks in Cranbrook, British Columbia, Canada

Now
72 °F

Mostly cloudy.


Feels Like: 77 °F
Forecast: 55 / 79 °F
Wind: 2 mph from North

Location: Cranbrook

Current Time: Aug 28, 2015 at 2:13:39 PM

Latest Report: Aug 28, 2015 at 1:00 PM


Visibility: 4 mi

Pressure: 29.91 "Hg (26.85 "Hg at 933m altitude)

Humidity: 38%

Dew point: 45 °F

Location of CranbrookLocation

Historic Weather in Cranbrook — Graph

°F

Cranbrook temperature yesterday

Maximum temperature yesterday: 86 °F (at 5:00 PM)
Minimum temperature yesterday: 52 °F (at 7:00 AM)
Average temperature yesterday: 68 °F

Past Weeks' High & Low Weather Summary

 TemperatureHumidityPressure
High97 °F (Aug 13, 4:00 PM)94% (Aug 16, 6:00 AM)30.31 "Hg (Aug 16, 6:00 AM)
Low41 °F (Aug 23, 7:00 AM)9% (Aug 13, 5:00 PM)29.51 "Hg (Aug 21, 5:00 AM)
Average65 °F44%29.96 "Hg
* Reported Aug 13 1:00 PM — Aug 28 1:00 PM, Cranbrook, Weather by CustomWeather, © 2015

Note: Actual official high and low records may vary slightly from our data, if they occured in-between our weather recording intervals... More about our weather records

Advertising

Cranbrook weather history for previous 24 hours

 ConditionsComfort  
Time TempWeatherWind HumidityBarometerVisibility
1:00 PM
Fri, Aug 28
72 °FMostly cloudy.2 mph38%29.91 "Hg4 mi
12:07 PM68 °FOvercast.No wind38%29.93 "Hg2 mi
11:00 AM64 °FOvercast.3 mph43%29.95 "Hg4 mi
10:00 AM63 °FPartly sunny.2 mph45%29.95 "Hg6 mi
9:00 AM61 °FPartly sunny.3 mph48%29.94 "Hg5 mi
8:00 AM59 °FPassing clouds.3 mph51%29.93 "Hg5 mi
7:00 AM55 °FPassing clouds.8 mph55%29.93 "Hg5 mi
6:00 AM61 °FPassing clouds.3 mph45%29.92 "Hg5 mi
5:00 AM55 °FClear.3 mph59%29.93 "Hg50 mi
4:00 AM55 °FClear.2 mph59%29.93 "Hg5 mi
3:00 AM57 °FClear.2 mph55%29.94 "Hg5 mi
2:00 AM61 °FClear.2 mph48%29.94 "Hg5 mi
1:00 AM63 °FPassing clouds.3 mph45%29.94 "Hg5 mi
12:00 AM66 °FPassing clouds.3 mph40%29.94 "Hg5 mi
11:00 PM
Thu, Aug 27
70 °FPartly cloudy.8 mph35%29.94 "Hg5 mi
10:00 PM72 °FPartly sunny.8 mph31%29.93 "Hg4 mi
9:00 PM77 °FPartly sunny.9 mph26%29.91 "Hg3 mi
8:00 PM81 °FPartly sunny.9 mph23%29.89 "Hg3 mi
7:00 PM84 °FPartly sunny.13 mph18%29.89 "Hg3 mi
6:00 PM86 °FPartly sunny.14 mph15%29.88 "Hg3 mi
5:00 PM86 °FPartly sunny.7 mph19%29.88 "Hg3 mi
4:08 PM84 °FPartly sunny.7 mph25%29.90 "Hg3 mi
3:00 PM79 °FPartly sunny.7 mph32%29.95 "Hg3 mi
2:00 PM73 °FPartly sunny.7 mph38%29.97 "Hg4 mi
Weather by CustomWeather, © 2015

See weather overviewHow to use our weather pages